Wind_Speed
1 1 1 2 2 3 2 2 1 1 1 1 2 2 2 2 2 2 2 2 2 2 2 2 3 4 4 5 5 4 4 3 4 4 5 5 5 5 5 6 6 5 4 4 4 5 6 7 7
2 2 3 3 3 3 3 2 1 1 2 1 2 2 2 2 2 2 2 3 3 3 3 3 4 4 5 6 6 5 5 5 5 5 5 6 6 6 7 7 7 6 6 6 6 7 7 7 8
2 3 3 3 4 3 3 3 2 2 2 2 2 2 2 2 2 3 3 3 4 4 4 4 5 5 6 6 6 6 6 6 6 6 6 6 6 6 7 7 7 8 7 7 7 8 8 8 8
3 3 3 3 4 4 3 3 3 3 3 3 3 3 3 3 3 4 4 4 4 4 5 5 6 6 6 6 7 7 6 6 6 6 7 7 7 7 7 7 7 7 8 8 8 8 9 9 9
4 4 3 3 4 4 4 4 4 4 4 4 4 4 4 4 4 5 5 5 5 5 6 6 7 7 6 6 6 6 6 6 6 7 7 7 7 8 8 8 7 7 8 8 9 9 9 9 10
4 4 3 4 4 4 4 4 5 5 5 5 5 5 5 5 6 6 7 7 6 7 7 7 7 7 7 7 7 7 7 6 7 7 7 7 8 8 8 8 8 8 8 9 9 9 9 10 10
4 4 4 5 5 5 5 5 5 5 5 5 6 6 6 6 7 7 8 8 8 8 8 8 8 8 8 8 7 8 7 7 7 7 7 8 8 8 8 8 8 8 9 9 9 9 9 10 10
6 6 6 6 6 6 6 5 5 5 6 6 6 6 6 7 8 8 8 8 8 8 8 8 9 9 9 8 8 8 8 8 8 8 8 9 9 9 9 9 9 9 9 9 9 10 10 10 11
7 7 7 6 7 7 7 7 6 6 6 6 6 7 7 8 9 9 8 9 9 9 9 9 9 9 9 9 9 8 8 8 9 9 9 10 10 10 10 10 10 10 10 10 10 10 10 11 11
7 7 7 8 7 7 7 8 8 8 7 6 7 7 7 8 9 8 8 8 8 9 9 9 9 9 9 9 9 9 9 10 10 11 10 10 10 10 11 11 11 11 11 11 11 11 11 12 12
7 7 8 8 8 8 8 8 8 8 8 7 7 7 7 7 7 7 7 8 8 9 9 10 10 9 9 9 9 9 10 10 10 11 11 11 11 11 11 11 11 11 12 11 11 12 12 13 13
8 8 9 9 9 9 9 9 9 9 9 8 8 9 9 9 8 8 8 9 9 9 9 10 10 10 10 9 10 10 10 10 11 11 12 12 12 12 12 12 12 12 12 12 12 12 13 13 14
9 9 10 10 10 10 10 10 10 9 9 9 9 9 9 9 9 9 9 10 9 10 10 10 10 10 10 10 10 10 10 11 11 12 12 12 13 13 12 12 11 11 12 11 12 12 12 13 13
10 10 10 11 11 11 11 11 10 10 10 10 9 10 9 9 9 10 10 10 10 10 10 10 10 10 10 10 11 11 11 11 12 12 12 12 12 12 12 12 11 11 12 12 12 12 12 12 12
10 11 11 11 11 11 12 11 10 10 10 11 10 10 10 10 11 11 11 11 11 11 10 11 11 11 11 11 11 11 12 12 12 13 13 13 13 13 13 12 12 12 12 12 12 13 12 12 12
10 11 11 11 11 11 11 10 10 10 11 11 11 10 10 11 11 11 11 11 11 11 11 11 11 11 11 11 12 12 12 13 13 14 14 14 13 13 13 13 13 13 13 13 13 13 12 13 13
11 11 11 11 11 11 11 10 11 11 11 12 11 11 11 12 12 12 12 12 12 12 12 12 12 12 12 12 13 13 13 14 14 15 15 14 14 13 13 13 13 13 13 13 13 13 13 14 14
11 11 11 12 11 12 12 11 12 12 12 13 13 12 13 13 13 12 12 12 13 13 13 12 13 13 13 13 14 14 15 15 15 15 15 15 15 14 14 13 13 13 14 14 14 14 14 14 15
12 12 12 13 12 13 13 13 13 14 14 14 14 14 14 14 14 13 13 13 14 14 14 13 14 14 14 14 14 15 15 15 15 15 15 16 16 15 15 14 14 14 14 14 14 14 15 15 15
13 13 12 12 13 13 13 13 14 14 14 15 15 15 15 15 14 14 14 14 15 15 15 14 15 15 15 15 15 15 15 15 15 15 15 16 16 15 15 15 15 15 15 15 16 16 16 16 17
14 13 13 14 14 13 13 13 14 14 14 15 15 16 16 15 15 15 15 14 15 15 16 15 15 15 15 15 15 15 15 16 16 16 16 16 16 16 15 15 15 16 16 17 17 18 18 18 17
13 13 14 14 14 13 14 14 13 15 15 15 15 16 16 16 16 16 16 15 16 15 15 15 15 15 15 15 15 16 16 16 16 16 16 16 16 16 16 16 16 16 17 17 18 18 18 19 19
14 13 13 14 13 14 13 15 14 16 15 16 16 16 16 16 16 16 16 16 16 16 16 16 15 15 15 16 16 16 16 17 17 17 16 16 16 17 17 17 17 17 17 18 18 18 18 18 18
13 13 13 13 13 13 12 15 15 17 17 17 16 16 17 17 17 17 17 17 17 17 16 17 17 17 16 16 16 17 17 17 17 17 17 17 17 17 17 18 17 17 18 18 18 18 18 18 19
13 13 13 13 13 13 13 16 17 17 18 18 17 17 17 17 17 18 18 18 18 18 18 18 18 18 18 18 17 17 17 17 18 18 18 18 18 18 18 18 18 18 18 18 18 18 18 18 18
15 14 14 14 14 14 16 18 18 19 19 18 19 18 18 18 19 18 18 19 19 19 19 18 18 19 19 18 18 18 18 18 18 19 19 19 18 18 18 18 18 19 18 18 18 18 18 18 18
16 16 16 16 16 15 16 17 19 20 19 19 19 19 18 19 19 20 19 19 19 19 19 19 19 19 19 19 19 19 19 19 19 20 20 19 19 19 19 18 19 19 18 18 19 19 19 19 19
17 17 18 18 18 18 17 18 21 21 21 21 20 20 20 20 20 21 21 21 20 20 20 20 20 20 21 21 21 20 20 20 20 20 20 20 20 19 19 19 19 19 19 19 19 20 20 20 20
19 19 19 20 20 19 18 20 22 22 22 22 22 21 21 21 22 22 22 22 22 22 22 22 21 21 22 22 21 21 21 21 21 21 21 21 20 20 20 20 20 20 20 21 21 21 21 21 21
20 20 20 21 21 21 21 22 22 24 24 23 23 23 22 22 23 23 23 23 23 23 23 23 23 23 23 23 23 22 22 22 22 22 22 22 21 21 21 22 21 22 22 22 22 22 22 22 22
Wind_Direction
186 183 175 178 178 182 177 171 178 224 253 290 288 281 280 288 278 253 263 285 301 306 316 331 337 336 334 328 319 310 308 313 319 314 302 298 296 298 297 296 293 290 285 269 250 251 253 253 254
192 198 197 199 195 187 193 191 211 239 257 273 284 279 277 283 277 269 275 291 299 302 304 313 324 325 329 329 324 315 299 300 305 304 298 295 296 296 298 297 294 286 278 272 264 263 262 264 262
200 207 203 203 208 210 223 218 216 246 259 266 280 284 285 276 277 281 286 294 296 301 306 314 319 321 323 322 322 318 316 306 305 303 302 300 299 298 296 297 295 290 279 275 276 272 269 270 268
209 208 210 213 226 233 244 234 237 253 261 267 278 281 280 275 283 281 284 290 292 298 306 312 316 317 318 317 318 319 319 315 311 309 311 312 307 303 303 300 298 292 283 278 276 277 274 274 272
217 213 217 223 236 243 244 244 252 256 256 261 270 276 278 275 279 279 281 284 289 294 300 306 311 313 313 315 317 317 320 319 317 314 311 309 308 306 303 299 298 294 291 285 280 277 275 274 272
219 218 225 232 236 247 250 254 258 262 262 262 268 274 278 277 281 283 281 281 286 291 294 298 303 307 307 308 310 311 313 316 313 311 311 309 306 305 303 298 295 294 293 290 283 281 277 273 274
227 230 238 246 247 246 251 257 266 273 275 273 275 276 283 284 283 284 284 286 289 292 293 295 297 298 299 301 304 306 306 306 307 308 310 311 310 308 306 299 296 293 290 287 282 279 278 278 277
231 236 241 249 246 243 248 251 260 268 272 273 277 281 284 287 285 284 285 287 288 291 293 294 294 293 293 297 300 303 302 300 301 303 305 307 306 306 303 300 298 296 291 289 283 280 279 278 278
232 238 242 246 248 249 251 253 258 263 268 271 274 280 281 285 286 283 282 284 288 291 294 296 294 293 292 294 297 298 300 301 300 302 300 299 300 299 299 296 293 292 288 286 284 283 282 280 281
234 238 248 249 252 255 259 260 263 267 269 274 281 285 284 285 284 282 282 286 290 291 295 299 299 295 293 293 296 295 297 300 301 302 302 300 299 298 299 297 298 293 288 287 286 285 283 283 283
240 244 253 254 255 260 262 264 266 271 277 282 290 294 293 292 288 285 287 290 295 298 299 300 300 297 295 296 297 297 299 301 301 303 303 302 302 299 300 300 300 296 292 291 290 288 287 284 282
247 248 253 258 259 263 265 267 269 274 280 287 292 293 294 293 289 288 291 294 295 297 298 300 301 300 296 295 295 297 298 301 302 306 306 303 302 301 298 301 301 301 299 298 295 292 289 285 282
250 255 258 261 262 265 267 268 271 275 280 285 287 287 289 289 286 287 290 294 295 295 297 299 299 297 296 293 293 297 299 301 304 305 306 305 302 302 302 301 304 304 303 300 301 298 295 291 287
253 256 260 263 264 266 268 268 271 276 278 281 283 285 288 288 288 289 291 294 294 294 295 297 298 296 295 294 294 297 298 301 303 304 305 305 305 304 303 302 301 301 300 300 300 297 296 294 293
256 258 260 262 264 266 268 267 270 275 279 280 282 283 284 287 289 292 292 295 296 296 296 296 297 297 296 296 296 295 296 299 300 301 302 302 301 301 302 301 298 297 297 300 300 298 294 295 295
257 260 261 261 262 264 266 268 272 275 278 279 280 281 283 287 291 293 292 293 294 296 297 298 296 295 296 296 295 294 294 297 298 298 299 300 299 298 300 301 299 296 295 297 296 296 296 295 294
260 265 266 263 264 266 267 270 274 276 278 278 278 279 283 286 288 289 291 291 291 292 295 296 295 294 294 294 293 292 293 295 297 297 296 297 297 297 297 299 298 297 296 295 294 295 297 297 295
260 266 267 265 265 269 272 272 274 275 277 278 278 279 280 283 285 287 289 289 288 289 290 292 293 292 293 292 293 293 293 294 295 296 297 297 297 296 295 295 297 298 299 297 296 296 296 298 297
256 259 261 264 265 268 271 273 272 274 275 276 278 280 279 279 282 283 285 285 287 287 285 290 292 292 292 292 293 293 293 294 294 294 296 298 297 297 296 295 294 296 297 298 297 298 298 296 295
254 258 263 266 268 270 271 273 275 274 274 275 276 278 280 280 280 281 282 281 284 288 287 290 292 293 292 290 290 292 292 293 292 292 294 295 296 296 297 294 293 294 295 295 295 297 297 296 295
252 255 258 262 268 271 275 275 277 277 278 276 276 277 277 278 279 279 281 284 284 288 288 289 290 292 292 290 290 290 291 291 291 291 293 294 294 295 296 298 295 293 294 295 296 297 297 296 296
252 255 258 261 265 271 276 279 280 281 279 277 276 276 276 278 279 279 280 282 285 286 287 287 287 291 291 291 291 292 293 292 291 291 291 292 294 295 295 297 298 296 297 297 297 295 295 295 294
254 257 261 263 265 267 273 277 280 282 283 280 277 277 279 280 279 279 279 281 282 286 287 288 286 288 290 292 293 294 293 292 291 291 291 291 293 295 295 295 297 297 299 300 300 297 296 295 295
254 257 261 264 268 270 271 272 275 280 283 282 280 280 280 280 280 279 280 281 282 282 285 286 285 286 289 293 295 295 294 294 293 293 292 292 293 294 296 296 296 298 300 300 300 299 297 295 294
252 254 260 265 270 277 275 275 275 275 279 281 281 282 283 284 282 280 280 282 282 282 283 284 285 286 288 291 293 294 294 294 295 294 294 293 293 294 296 297 297 298 298 300 299 299 297 297 295
255 254 256 258 262 262 266 273 277 277 281 281 281 281 280 281 281 280 280 281 282 282 283 285 285 286 286 289 291 291 292 292 293 293 293 294 293 294 295 296 297 298 298 298 300 301 298 296 295
258 254 255 257 256 259 267 274 275 278 280 281 282 282 281 280 280 281 280 281 282 283 284 286 286 285 285 286 287 288 289 289 291 292 292 294 294 294 294 296 298 298 298 298 300 301 299 296 295
258 258 257 256 260 260 263 269 273 275 279 281 282 281 282 281 279 280 280 280 282 283 284 285 285 284 284 284 284 286 288 289 290 291 291 292 294 294 294 296 297 296 296 298 299 300 300 296 293
257 257 258 260 262 262 264 263 267 273 276 279 281 282 281 281 281 280 281 281 281 282 284 285 285 284 283 283 283 284 286 288 289 291 290 291 292 292 293 295 295 295 295 296 297 299 299 296 293
259 260 260 260 261 260 262 266 267 272 275 277 279 281 282 281 281 281 281 280 281 282 283 284 284 284 284 282 282 283 285 287 289 290 291 291 290 290 291 294 293 294 295 295 295 297 298 296 293
Height
5867 5867 5867 5869 5869 5869 5869 5870 5870 5870 5871 5871 5871 5871 5872 5872 5874 5876 5874 5873 5873 5873 5873 5873 5873 5872 5872 5871 5871 5870 5870 5869 5869 5869 5868 5868 5868 5867 5867 5866 5866 5865 5864 5864 5864 5865 5865 5866 5866
5866 5867 5868 5869 5869 5869 5869 5869 5870 5870 5871 5871 5871 5871 5872 5872 5873 5873 5872 5873 5873 5873 5873 5873 5873 5872 5872 5871 5870 5870 5869 5869 5869 5868 5868 5868 5867 5867 5866 5866 5865 5865 5864 5864 5864 5864 5865 5865 5866
5866 5867 5868 5869 5868 5869 5869 5869 5870 5870 5870 5871 5871 5872 5872 5872 5873 5872 5872 5872 5873 5873 5872 5872 5872 5872 5871 5871 5870 5869 5869 5869 5868 5868 5868 5867 5867 5866 5865 5865 5864 5864 5864 5864 5864 5864 5864 5864 5864
5866 5867 5868 5869 5868 5868 5868 5869 5869 5870 5870 5870 5871 5871 5871 5872 5872 5872 5872 5872 5872 5872 5872 5871 5871 5871 5870 5870 5869 5869 5868 5868 5868 5867 5867 5866 5866 5865 5865 5864 5864 5863 5863 5863 5863 5863 5863 5863 5863
5865 5867 5868 5867 5867 5868 5868 5868 5869 5870 5870 5870 5871 5871 5871 5871 5872 5871 5871 5871 5871 5871 5871 5870 5870 5870 5869 5869 5869 5868 5868 5867 5867 5866 5866 5865 5865 5864 5864 5863 5863 5862 5862 5862 5862 5862 5862 5861 5861
5865 5866 5866 5866 5866 5867 5868 5868 5868 5869 5869 5869 5870 5870 5870 5870 5871 5871 5870 5870 5870 5870 5870 5870 5869 5869 5868 5868 5867 5867 5867 5866 5866 5865 5865 5864 5864 5863 5862 5862 5861 5861 5861 5861 5860 5860 5860 5860 5859
5865 5865 5865 5865 5866 5867 5867 5867 5868 5868 5868 5869 5869 5869 5869 5869 5869 5869 5869 5869 5869 5869 5869 5868 5868 5868 5867 5867 5867 5866 5865 5865 5864 5864 5863 5863 5862 5862 5861 5860 5860 5860 5859 5859 5859 5858 5858 5858 5858
5863 5865 5864 5865 5865 5866 5866 5867 5867 5867 5868 5868 5868 5868 5868 5868 5868 5868 5868 5868 5868 5867 5867 5867 5866 5866 5866 5865 5865 5865 5864 5864 5863 5863 5862 5861 5861 5860 5860 5859 5858 5858 5857 5857 5857 5856 5856 5856 5856
5862 5865 5864 5864 5865 5865 5865 5866 5866 5867 5867 5867 5867 5867 5867 5867 5867 5867 5866 5866 5866 5866 5865 5865 5865 5864 5864 5864 5863 5863 5863 5862 5861 5861 5860 5860 5859 5859 5858 5857 5857 5856 5856 5855 5855 5854 5854 5854 5853
5861 5863 5863 5863 5864 5864 5864 5865 5865 5866 5866 5866 5866 5866 5866 5866 5865 5865 5865 5865 5865 5864 5864 5863 5863 5863 5862 5862 5862 5861 5861 5860 5860 5859 5859 5858 5858 5857 5857 5856 5855 5854 5853 5853 5853 5852 5852 5852 5851
5860 5861 5862 5862 5862 5863 5863 5864 5864 5864 5865 5865 5865 5865 5864 5864 5864 5864 5863 5863 5863 5863 5862 5862 5861 5861 5861 5860 5860 5860 5859 5859 5858 5857 5857 5856 5856 5855 5855 5854 5853 5852 5851 5851 5850 5850 5849 5849 5849
5858 5859 5860 5860 5861 5861 5862 5862 5863 5863 5863 5863 5863 5863 5863 5863 5863 5862 5862 5862 5861 5861 5861 5860 5859 5859 5859 5858 5858 5858 5857 5857 5856 5856 5855 5855 5854 5853 5853 5852 5851 5850 5849 5848 5848 5847 5847 5846 5846
5856 5857 5858 5859 5859 5860 5860 5860 5861 5861 5861 5861 5862 5862 5861 5861 5861 5861 5861 5860 5860 5860 5859 5858 5858 5857 5857 5856 5856 5856 5856 5855 5854 5854 5853 5853 5852 5851 5851 5850 5849 5848 5847 5846 5846 5845 5844 5844 5843
5855 5855 5856 5857 5857 5858 5858 5859 5859 5859 5860 5860 5860 5860 5860 5860 5859 5859 5859 5858 5858 5858 5857 5857 5856 5855 5855 5855 5854 5854 5854 5853 5853 5852 5851 5851 5850 5849 5848 5848 5847 5846 5845 5844 5843 5843 5842 5841 5840
5853 5854 5854 5854 5855 5856 5856 5857 5857 5857 5858 5858 5858 5858 5858 5858 5858 5857 5857 5857 5856 5856 5855 5855 5854 5853 5853 5853 5852 5852 5852 5851 5851 5850 5849 5848 5848 5847 5846 5845 5845 5844 5843 5842 5841 5840 5839 5839 5838
5850 5851 5852 5853 5853 5854 5856 5856 5856 5855 5856 5856 5856 5856 5856 5856 5856 5856 5855 5855 5854 5854 5854 5853 5852 5851 5851 5851 5850 5850 5849 5849 5848 5847 5847 5846 5845 5844 5843 5843 5842 5841 5840 5839 5838 5837 5836 5836 5835
5848 5849 5850 5851 5851 5851 5852 5853 5853 5853 5853 5854 5854 5854 5854 5854 5854 5854 5853 5853 5852 5852 5851 5851 5850 5849 5849 5848 5848 5847 5847 5846 5846 5845 5844 5843 5842 5842 5841 5840 5839 5838 5837 5836 5835 5835 5833 5833 5832
5847 5847 5848 5848 5849 5849 5850 5851 5851 5851 5851 5851 5851 5852 5852 5852 5852 5851 5851 5850 5850 5849 5849 5848 5848 5847 5847 5846 5845 5845 5844 5844 5843 5842 5841 5840 5839 5839 5838 5837 5836 5835 5834 5833 5832 5831 5830 5829 5828
5844 5845 5846 5846 5847 5847 5847 5848 5848 5848 5848 5848 5848 5849 5849 5849 5849 5849 5848 5848 5847 5847 5846 5846 5845 5845 5844 5843 5843 5842 5841 5841 5840 5839 5838 5837 5836 5836 5835 5834 5833 5832 5831 5830 5829 5828 5827 5826 5824
5841 5842 5843 5843 5844 5844 5844 5845 5845 5845 5845 5846 5846 5846 5846 5845 5846 5846 5845 5845 5844 5844 5843 5843 5842 5842 5841 5840 5840 5839 5838 5838 5837 5836 5835 5834 5833 5832 5831 5830 5830 5829 5828 5827 5825 5824 5823 5822 5821
5839 5840 5841 5841 5841 5841 5842 5842 5842 5842 5842 5843 5843 5843 5843 5842 5842 5842 5842 5842 5841 5841 5840 5840 5840 5839 5838 5837 5836 5836 5835 5834 5833 5833 5832 5831 5830 5829 5828 5827 5826 5825 5824 5823 5822 5820 5819 5818 5817
5836 5837 5838 5838 5838 5839 5839 5839 5840 5839 5839 5839 5839 5839 5839 5839 5839 5839 5839 5839 5839 5838 5838 5837 5836 5835 5835 5834 5833 5832 5831 5831 5830 5829 5828 5827 5826 5825 5824 5823 5822 5821 5820 5819 5817 5816 5815 5814 5812
5833 5834 5835 5835 5835 5836 5837 5837 5838 5836 5836 5836 5836 5836 5836 5836 5836 5836 5836 5836 5835 5834 5834 5834 5833 5832 5831 5830 5829 5828 5828 5827 5826 5825 5824 5823 5823 5822 5820 5819 5818 5817 5816 5814 5813 5811 5810 5809 5808
5830 5831 5831 5832 5832 5834 5834 5834 5835 5833 5833 5833 5832 5833 5833 5832 5832 5832 5832 5832 5832 5831 5831 5830 5829 5828 5828 5827 5826 5825 5824 5823 5822 5821 5820 5819 5819 5818 5816 5815 5814 5813 5812 5810 5809 5807 5806 5804 5803
5827 5828 5829 5829 5829 5831 5831 5831 5832 5830 5830 5829 5829 5829 5829 5829 5829 5829 5828 5828 5828 5827 5827 5826 5825 5824 5824 5823 5822 5821 5820 5819 5818 5817 5816 5815 5814 5813 5812 5811 5810 5808 5807 5806 5804 5803 5801 5800 5799
5823 5825 5826 5827 5828 5829 5828 5828 5828 5827 5826 5826 5826 5825 5826 5825 5825 5825 5824 5824 5824 5823 5823 5822 5821 5820 5819 5819 5818 5817 5816 5815 5814 5813 5812 5811 5810 5809 5808 5806 5805 5804 5802 5801 5800 5798 5797 5795 5794
5819 5820 5822 5823 5823 5824 5825 5825 5824 5823 5823 5822 5822 5822 5822 5821 5821 5820 5820 5820 5819 5819 5818 5818 5817 5816 5815 5814 5813 5812 5811 5810 5810 5808 5807 5806 5805 5804 5803 5802 5800 5799 5798 5796 5795 5793 5792 5790 5789
5816 5817 5818 5818 5819 5820 5821 5821 5820 5819 5819 5818 5818 5818 5817 5817 5816 5816 5815 5815 5815 5814 5813 5813 5812 5811 5810 5809 5808 5807 5807 5806 5805 5804 5803 5802 5801 5799 5798 5797 5796 5794 5793 5792 5790 5789 5787 5785 5784
5812 5813 5813 5814 5815 5816 5816 5818 5816 5815 5815 5814 5813 5813 5813 5812 5811 5811 5810 5810 5810 5809 5808 5807 5807 5806 5805 5804 5803 5802 5802 5801 5799 5799 5798 5796 5795 5794 5793 5792 5791 5789 5788 5786 5785 5783 5782 5780 5778
5806 5808 5809 5810 5810 5811 5811 5814 5811 5810 5809 5809 5808 5808 5807 5807 5806 5806 5805 5804 5804 5803 5803 5802 5801 5800 5799 5799 5798 5797 5796 5795 5794 5793 5792 5791 5790 5789 5788 5786 5785 5784 5782 5781 5779 5778 5776 5774 5773